Location: Unspecified
(42.3650°N, 71.1030°W)
Time: 16:11:48
(UTC+00:00)

Transit 4A - Pass Details

Date: 25 June 2024
Orbit: 870 x 973 km, 66.8° (Epoch: 17 July)

Event Time Altitude Azimuth Distance (km) Brightness Sun altitude
Rises 01:49:54 0° 193° (SSW) 3,465 10.5 -12.6°
Reaches altitude 10° 01:52:27 10° 188° (S) 2,521 9.8 -12.9°
Maximum altitude 01:58:03 52° 114° (ESE) 1,077 7.9 -13.6°
Drops below altitude 10° 02:03:40 10° 40° (NE) 2,523 10.3 -14.2°
Sets 02:06:12 0° 35° (NE) 3,469 11.1 -14.5°
